Wooster, OH

6:34 PM EDT on September 24, 2017 (GMT -0400)
Wayne County

Weather History for KBJJ - February, 2014

Change the Weather History Date:

Tuesday, February 18, 2014

  Actual Average Record
Temperature  
Mean Temperature 32 °F -  
Max Temperature 42 °F 36 °F 64 °F (2017)
Min Temperature 25 °F 22 °F -5 °F (2007)
Degree Days  
Heating Degree Days 33    
Moisture  
Dew Point 24 °F    
Average Humidity 77    
Maximum Humidity 92    
Minimum Humidity 47    
Precipitation  
Precipitation 0.00 in - - ()
Sea Level Pressure  
Sea Level Pressure 29.89 in    
Wind  
Wind Speed 22 mph (WSW)    
Max Wind Speed 33 mph    
Max Gust Speed 41 mph    
Visibility 5 miles    
Events Fog , Snow    
Averages and records for this station are not official NWS values.
T = Trace of Precipitation, MM = Missing Value Source: NWS Daily Summary

Daily Weather History Graph

Daily Weather History Graph

Search for Another Location

Airport or City:

Trip Planner

Search our weather history database for the weather conditions in past years. The results will help you decide how hot, cold, wet, or windy it might be!

Date:

Astronomy

Feb. 18, 2014 Rise Set
Actual Time 7:17 AM EST 6:05 PM EST
Civil Twilight 6:49 AM EST 6:33 PM EST
Nautical Twilight 6:17 AM EST 7:05 PM EST
Astronomical Twilight 5:45 AM EST 7:37 PM EST
Moon 9:59 PM EST (2/18) 8:47 AM EST (2/18)
Length of Visible Light 11h 44m
Length of Day
10h 48m
Waning Gibbous, 87% of the Moon is Illuminated
Feb 18
Waning Gibbous
Feb 22
Last Quarter
Mar 1
New
Mar 8
First Quarter
Mar 16
Full

Hourly Weather History & Observations

Time (EST) Temp. Windchill Dew Point Humidity Pressure Visibility Wind Dir Wind Speed Gust Speed Precip Events Conditions
12:03 AM 34.0 °F 20.8 °F 30.0 °F 85% 29.69 in 3.0 mi WSW 27.6 mph 34.5 mph 0.00 in Snow Light Snow
12:19 AM 34.0 °F 21.0 °F 28.9 °F 82% 29.70 in 4.0 mi WSW 26.5 mph 32.2 mph 0.00 in Snow Light Snow
12:33 AM 33.1 °F 21.2 °F 28.9 °F 85% 29.72 in 2.5 mi WSW 20.7 mph 32.2 mph 0.00 in Snow Light Snow
12:44 AM 33.1 °F 21.2 °F 28.9 °F 85% 29.72 in 1.2 mi WSW 20.7 mph 35.7 mph 0.00 in Snow Light Snow
12:56 AM 32.0 °F 19.8 °F 28.9 °F 88% 29.76 in 1.5 mi WSW 20.7 mph 26.5 mph 0.00 in Snow Light Snow
1:01 AM 32.0 °F 19.2 °F 28.9 °F 88% 29.72 in 1.2 mi WSW 23.0 mph 29.9 mph 0.00 in Snow Light Snow
1:05 AM 32.0 °F 20.1 °F 28.9 °F 88% 29.73 in 1.0 mi WSW 19.6 mph 29.9 mph 0.00 in Snow Light Snow
1:15 AM 32.0 °F 19.5 °F 28.9 °F 88% 29.72 in 0.8 mi WSW 21.9 mph 29.9 mph 0.00 in Snow Light Snow
1:27 AM 32.0 °F 19.5 °F 28.9 °F 88% 29.73 in 1.0 mi WSW 21.9 mph 32.2 mph 0.01 in Snow Light Snow
1:38 AM 32.0 °F 19.8 °F 28.9 °F 88% 29.73 in 1.0 mi WSW 20.7 mph 28.8 mph 0.01 in Snow Light Snow
3:56 AM - - - N/A% 29.81 in - WNW 26.5 mph - N/A   Unknown
4:05 AM 28.9 °F 14.3 °F 27.0 °F 92% 29.77 in 0.8 mi West 26.5 mph 34.5 mph 0.00 in Snow Light Snow
4:31 AM 28.9 °F 15.1 °F 26.1 °F 89% 29.79 in 0.5 mi West 23.0 mph 32.2 mph 0.00 in Fog , Snow Snow
4:43 AM 28.9 °F 15.1 °F 26.1 °F 89% 29.80 in 0.5 mi West 23.0 mph 28.8 mph 0.00 in Fog , Snow Snow
5:08 AM 28.0 °F 15.3 °F 26.1 °F 92% 29.82 in 0.5 mi West 18.4 mph 26.5 mph 0.00 in Fog , Snow Snow
5:23 AM 28.0 °F 14.3 °F 25.0 °F 88% 29.83 in 1.2 mi West 21.9 mph 29.9 mph 0.00 in Snow Light Snow
5:36 AM 28.9 °F 16.9 °F 25.0 °F 85% 29.84 in 2.5 mi WNW 17.3 mph - 0.00 in   Overcast
5:47 AM 28.0 °F 12.5 °F 24.1 °F 85% 29.85 in 3.0 mi WNW 28.8 mph 38.0 mph 0.00 in   Overcast
5:52 AM 28.4 °F 12.0 °F 23.0 °F 80% 29.85 in 2.0 mi WNW 33.4 mph 39.1 mph 0.00 in   Overcast
5:54 AM 26.6 °F 10.3 °F 23.0 °F 86% 29.85 in 1.8 mi WNW 29.9 mph 39.1 mph 0.00 in   Overcast
5:56 AM 27.0 °F 10.5 °F 23.0 °F 85% 29.90 in 1.8 mi WNW 31.1 mph 41.4 mph 0.00 in   Overcast
6:04 AM 27.0 °F 10.8 °F 21.9 °F 81% 29.86 in 1.5 mi WNW 29.9 mph 41.4 mph 0.00 in   Overcast
6:18 AM 27.0 °F 12.5 °F 21.0 °F 78% 29.88 in 3.0 mi WNW 23.0 mph 34.5 mph 0.00 in   Haze
6:56 AM 25.0 °F 8.9 °F 19.0 °F 78% 29.95 in 4.0 mi WNW 26.5 mph 32.2 mph 0.00 in   Haze
7:16 AM 25.0 °F 9.5 °F 18.0 °F 75% 29.92 in 2.5 mi West 24.2 mph 36.8 mph 0.00 in   Overcast
7:24 AM 25.0 °F 9.2 °F 18.0 °F 75% 29.93 in 5.0 mi West 25.3 mph 31.1 mph 0.00 in   Haze
7:56 AM 25.0 °F 12.6 °F 19.0 °F 78% 30.00 in 5.0 mi West 15.0 mph 26.5 mph 0.00 in   Haze
8:56 AM 25.0 °F 12.2 °F 18.0 °F 75% 30.04 in 6.0 mi West 16.1 mph - N/A   Haze
9:56 AM 26.1 °F 11.3 °F 18.0 °F 71% 30.07 in 6.0 mi West 23.0 mph 27.6 mph N/A   Haze
10:37 AM 26.1 °F 14.0 °F 18.0 °F 71% 30.04 in 7.0 mi West 15.0 mph - N/A   Partly Cloudy
10:54 AM 26.6 °F 13.4 °F 19.4 °F 74% 30.04 in 7.0 mi West 18.4 mph - N/A   Mostly Cloudy
10:56 AM 27.0 °F 15.2 °F 19.0 °F 72% 30.09 in 7.0 mi West 15.0 mph - N/A   Mostly Cloudy
11:56 AM 28.9 °F 17.3 °F 21.9 °F 75% 30.10 in 6.0 mi West 16.1 mph - N/A   Haze
12:56 PM 32.0 °F 22.1 °F 25.0 °F 75% 30.08 in 6.0 mi WSW 13.8 mph - N/A   Haze
1:37 PM 34.0 °F 24.2 °F 27.0 °F 75% 30.02 in 6.0 mi SW 15.0 mph - N/A   Haze
1:56 PM 35.1 °F 26.9 °F 27.0 °F 72% 30.06 in 7.0 mi SW 11.5 mph - N/A   Clear
2:56 PM 37.9 °F 29.6 °F 27.0 °F 65% 30.04 in 10.0 mi SW 13.8 mph - N/A   Clear
3:56 PM 39.0 °F 31.8 °F 27.0 °F 62% 30.03 in 10.0 mi SSW 11.5 mph - N/A   Clear
4:56 PM 39.0 °F 33.4 °F 25.0 °F 57% 30.00 in 10.0 mi South 8.1 mph - N/A   Clear
5:56 PM 37.9 °F 32.1 °F 26.1 °F 62% 30.00 in 10.0 mi South 8.1 mph - N/A   Clear
6:56 PM 32.0 °F 24.8 °F 23.0 °F 69% 29.98 in 10.0 mi SE 8.1 mph - N/A   Clear
7:56 PM 30.9 °F 24.3 °F 21.9 °F 69% 29.97 in 10.0 mi South 6.9 mph - N/A   Clear
8:56 PM 37.0 °F 29.8 °F 23.0 °F 57% 29.93 in 10.0 mi South 10.4 mph - N/A   Clear
9:56 PM 37.9 °F 29.6 °F 23.0 °F 55% 29.90 in 10.0 mi South 13.8 mph - N/A   Clear
10:56 PM 39.9 °F 32.9 °F 21.9 °F 49% 29.87 in 10.0 mi South 11.5 mph - N/A   Clear
11:56 PM 42.1 °F 34.9 °F 23.0 °F 47% 29.82 in 10.0 mi South 13.8 mph - N/A   Clear